Location: L�beck
(53.8752°N, 10.6787°E)
Time: 16:46:05
(UTC+01:00)

N. Korean satellite - Visible Passes

Search period start: 21 November 2017 00:00
Search period end: 01 December 2017 00:00
Orbit: 460 x 514 km, 97.2° (Epoch: 20 November)

Date Brightness Start Highest point End Pass type
(mag) Time Alt. Az. Time Alt. Az. Time Alt. Az.
21 Nov 8.7 06:40:37 10° NNE 06:44:02 33° E 06:47:27 10° SSE visible
21 Nov 7.2 17:23:14 10° SE 17:26:27 34° ENE 17:29:45 10° N visible
21 Nov 8.9 18:57:07 10° SSW 19:00:04 24° W 19:03:05 10° NW visible
22 Nov 9.6 06:17:33 10° NE 06:20:23 20° E 06:23:13 10° SE visible
22 Nov 7.8 17:00:24 10° ESE 17:03:09 21° ENE 17:05:56 10° NNE visible
22 Nov 7.8 18:33:03 10° S 18:36:26 42° W 18:39:55 10° NNW visible
23 Nov 10.1 05:55:04 10° ENE 05:56:40 12° E 05:58:15 10° ESE visible
23 Nov 6.6 18:09:20 10° S 18:12:53 77° WSW 18:16:33 10° NNW visible
24 Nov 7.5 07:03:29 10° NNE 07:07:12 57° E 07:10:55 10° S visible
24 Nov 6.5 17:45:55 10° SSE 17:49:25 59° ENE 17:53:01 10° N visible
24 Nov 9.7 19:21:12 10° SW 19:23:21 15° W 19:25:30 10° NW visible
25 Nov 8.7 06:40:10 10° NNE 06:43:37 33° E 06:47:03 10° SSE visible
25 Nov 7.2 17:22:45 10° SE 17:26:00 34° ENE 17:29:21 10° N visible
25 Nov 8.9 18:56:37 10° SSW 18:59:37 25° W 19:02:41 10° NW visible
26 Nov 9.6 06:17:06 10° NE 06:19:57 20° E 06:22:48 10° SE visible
26 Nov 7.8 16:59:53 10° ESE 17:02:40 21° ENE 17:05:30 10° NNE visible
26 Nov 7.8 18:32:33 10° S 18:35:59 43° W 18:39:30 10° NNW visible
27 Nov 10.1 05:54:36 10° ENE 05:56:13 12° E 05:57:49 10° ESE visible
27 Nov 6.7 18:08:49 10° S 18:12:25 78° WSW 18:16:06 10° NNW visible
28 Nov 7.5 07:03:00 10° NNE 07:06:44 57° E 07:10:27 10° S visible
28 Nov 6.6 17:45:23 10° SSE 17:48:55 59° ENE 17:52:34 10° N visible
28 Nov 9.7 19:20:38 10° SW 19:22:50 15° W 19:25:04 10° NW visible
29 Nov 8.6 06:39:41 10° NNE 06:43:08 33° E 06:46:35 10° SSE visible
29 Nov 7.2 17:22:12 10° SE 17:25:31 34° ENE 17:28:53 10° N visible
29 Nov 8.9 18:56:04 10° SSW 18:59:06 25° W 19:02:13 10° NW visible
30 Nov 9.6 06:16:36 10° NE 06:19:28 20° E 06:22:18 10° SE visible
30 Nov 7.8 16:59:20 10° ESE 17:02:10 22° ENE 17:05:03 10° N visible
30 Nov 7.8 18:31:59 10° S 18:35:27 43° W 18:39:01 10° NNW visible
